Change the Weather History Date:

Thursday, August 2, 2012

  Actual Average Record
Temperature  
Mean Temperature 82 °F -  
Max Temperature 95 °F 84 °F 100 °F (1988)
Min Temperature 69 °F 60 °F 49 °F (1985)
Cooling Degree Days 17    
Growing Degree Days 32 (Base 50)    
Moisture  
Dew Point 60 °F    
Average Humidity 52    
Maximum Humidity 76    
Minimum Humidity 27    
Precipitation  
Precipitation 0.00 in - - ()
Sea Level Pressure  
Sea Level Pressure 29.85 in    
Wind  
Wind Speed 6 mph (SE)    
Max Wind Speed 10 mph    
Max Gust Speed -    
Visibility 10 miles    
Events      
Averages and records for this station are not official NWS values.
T = Trace of Precipitation, MM = Missing Value Source: NWS Daily Summary

Daily Weather History Graph

Daily Weather History Graph

Search for Another Location

Airport or City:

Trip Planner

Search our weather history database for the weather conditions in past years. The results will help you decide how hot, cold, wet, or windy it might be!

Date:

Astronomy

Aug. 02, 2012 Rise Set
Actual Time 6:02 AM CDT 8:25 PM CDT
Civil Twilight 5:30 AM CDT 8:56 PM CDT
Nautical Twilight 4:51 AM CDT 9:35 PM CDT
Astronomical Twilight 4:08 AM CDT 10:19 PM CDT
Moon 8:29 PM CDT (8/2) 6:41 AM CDT (8/2)
Length of Visible Light 15h 25m
Length of Day
14h 22m
Full, 100% of the Moon is Illuminated
Aug 2
Full
Aug 9
Last Quarter
Aug 17
New
Aug 24
First Quarter
Aug 31
Full

Hourly Weather History & Observations

Time (CDT) Temp. Heat Index Dew Point Humidity Pressure Visibility Wind Dir Wind Speed Gust Speed Precip Events Conditions
12:15 AM 73.8 °F - 64.4 °F 72% 29.88 in 10.0 mi South 5.8 mph - N/A   Clear
12:35 AM 72.1 °F - 63.3 °F 74% 29.88 in 10.0 mi SSW 5.8 mph - N/A   Clear
12:55 AM 72.1 °F - 63.1 °F 73% 29.87 in 10.0 mi South 3.5 mph - N/A   Clear
1:35 AM 73.6 °F - 63.9 °F 72% 29.86 in 10.0 mi South 4.6 mph - N/A   Clear
1:55 AM 74.7 °F - 63.9 °F 69% 29.85 in 10.0 mi South 4.6 mph - N/A   Clear
2:15 AM 74.7 °F - 63.9 °F 69% 29.84 in 10.0 mi South 5.8 mph - N/A   Clear
2:35 AM 74.7 °F - 64.4 °F 70% 29.84 in 10.0 mi South 5.8 mph - N/A   Clear
2:55 AM 74.7 °F - 63.3 °F 68% 29.84 in 10.0 mi South 5.8 mph - N/A   Clear
3:15 AM 74.7 °F - 63.0 °F 67% 29.84 in 10.0 mi South 5.8 mph - N/A   Clear
3:35 AM 74.7 °F - 63.1 °F 67% 29.83 in 10.0 mi South 5.8 mph - N/A   Clear
4:35 AM 74.7 °F - 62.8 °F 66% 29.84 in 10.0 mi NNW 6.9 mph - N/A   Clear
4:55 AM 74.7 °F - 62.6 °F 66% 29.84 in 10.0 mi Calm Calm - N/A   Clear
5:15 AM 74.5 °F - 63.1 °F 68% 29.84 in 10.0 mi WSW 4.6 mph - N/A   Clear
5:35 AM 72.1 °F - 61.9 °F 70% 29.84 in 10.0 mi South 5.8 mph - N/A   Clear
5:55 AM 70.9 °F - 61.5 °F 72% 29.87 in 10.0 mi SE 4.6 mph - N/A   Clear
6:15 AM 69.8 °F - 61.3 °F 74% 29.85 in 10.0 mi East 6.9 mph - N/A   Clear
6:35 AM 69.8 °F - 61.9 °F 76% 29.85 in 10.0 mi ESE 4.6 mph - N/A   Clear
6:55 AM 69.8 °F - 61.7 °F 75% 29.86 in 10.0 mi SE 3.5 mph - N/A   Clear
7:15 AM 72.1 °F - 63.0 °F 73% 29.88 in 10.0 mi Calm Calm - N/A   Scattered Clouds
7:35 AM 72.1 °F - 63.0 °F 73% 29.89 in 7.0 mi ENE 10.4 mph - N/A   Mostly Cloudy
7:55 AM 74.7 °F - 63.0 °F 67% 29.89 in 10.0 mi ESE 5.8 mph - N/A   Scattered Clouds
8:15 AM 74.7 °F - 62.4 °F 66% 29.88 in 10.0 mi SE 5.8 mph - N/A   Clear
8:35 AM 77.2 °F - 63.0 °F 61% 29.88 in 10.0 mi SSE 4.6 mph - N/A   Clear
8:55 AM 79.7 °F - 63.5 °F 58% 29.88 in 10.0 mi SSE 6.9 mph - N/A   Scattered Clouds
9:15 AM 79.7 °F - 61.5 °F 54% 29.87 in 10.0 mi SE 8.1 mph - N/A   Scattered Clouds
9:35 AM 81.1 °F 81.9 °F 61.0 °F 50% 29.87 in 10.0 mi SE 5.8 mph - N/A   Scattered Clouds
9:55 AM 83.3 °F 83.2 °F 59.5 °F 44% 29.87 in 10.0 mi ESE 6.9 mph - N/A   Scattered Clouds
10:15 AM 83.8 °F 83.8 °F 59.9 °F 44% 29.87 in 10.0 mi East 6.9 mph - N/A   Scattered Clouds
10:35 AM 83.7 °F 83.6 °F 59.4 °F 44% 29.87 in 10.0 mi East 8.1 mph - N/A   Scattered Clouds
10:55 AM 84.6 °F 84.2 °F 59.2 °F 42% 29.87 in 10.0 mi ESE 6.9 mph - N/A   Clear
11:35 AM 88.0 °F 86.9 °F 58.1 °F 36% 29.86 in 10.0 mi SE 6.9 mph - N/A   Clear
11:55 AM 90.0 °F 88.3 °F 56.3 °F 32% 29.87 in 10.0 mi SE 4.6 mph - N/A   Scattered Clouds
12:15 PM 90.0 °F 87.9 °F 55.0 °F 30% 29.86 in 10.0 mi ESE 5.8 mph - N/A   Clear
12:35 PM 90.0 °F 88.1 °F 55.2 °F 31% 29.85 in 10.0 mi East 6.9 mph - N/A   Clear
1:15 PM 91.4 °F 89.6 °F 55.6 °F 30% 29.84 in 10.0 mi ESE 9.2 mph - N/A   Clear
1:35 PM 92.1 °F 90.2 °F 55.6 °F 29% 29.84 in 10.0 mi ESE 6.9 mph - N/A   Clear
1:55 PM 95.0 °F 93.7 °F 56.8 °F 28% 29.83 in 10.0 mi ESE 8.1 mph - N/A   Clear
2:15 PM 95.0 °F 93.7 °F 57.4 °F 28% 29.83 in 10.0 mi ESE 6.9 mph - N/A   Clear
2:35 PM 95.0 °F 94.0 °F 57.7 °F 29% 29.82 in 10.0 mi ESE 6.9 mph - N/A   Clear
2:55 PM 95.0 °F 94.0 °F 57.9 °F 29% 29.82 in 10.0 mi ESE 6.9 mph - N/A   Clear
3:55 PM 95.0 °F 93.4 °F 56.1 °F 27% 29.82 in 10.0 mi ESE 9.2 mph - N/A   Clear
4:15 PM 95.0 °F 93.4 °F 56.3 °F 27% 29.81 in 10.0 mi ESE 4.6 mph - N/A   Clear
4:35 PM 95.0 °F 93.7 °F 56.8 °F 28% 29.81 in 10.0 mi SE 6.9 mph - N/A   Clear
5:15 PM 95.0 °F 93.7 °F 57.0 °F 28% 29.80 in - ESE 10.4 mph - N/A   Unknown
5:35 PM 95.0 °F 94.0 °F 58.1 °F 29% 29.80 in 10.0 mi SE 5.8 mph - N/A   Clear
5:55 PM 92.8 °F 91.1 °F 55.8 °F 29% 29.80 in 10.0 mi ESE 8.1 mph - N/A   Clear
6:15 PM 92.5 °F 91.0 °F 56.5 °F 30% 29.80 in 10.0 mi ESE 9.2 mph - N/A   Clear
6:35 PM 91.2 °F 89.4 °F 55.4 °F 30% 29.80 in 10.0 mi ESE 8.1 mph - N/A   Clear
6:55 PM 90.0 °F 88.1 °F 55.8 °F 31% 29.80 in 10.0 mi SE 5.8 mph - N/A   Clear
7:15 PM 90.0 °F 88.8 °F 57.9 °F 34% 29.80 in 10.0 mi ESE 5.8 mph - N/A   Clear
7:35 PM 90.0 °F 90.3 °F 61.7 °F 39% 29.81 in 10.0 mi ESE 5.8 mph - N/A   Clear
7:55 PM 84.2 °F 84.0 °F 59.4 °F 43% 29.81 in 10.0 mi ESE 5.8 mph - N/A   Clear
8:35 PM 80.2 °F 81.2 °F 61.0 °F 52% 29.82 in 10.0 mi ESE 3.5 mph - N/A   Clear
8:55 PM 79.7 °F - 61.7 °F 54% 29.83 in 10.0 mi SE 3.5 mph - N/A   Clear
9:15 PM 79.7 °F - 62.1 °F 55% 29.84 in 10.0 mi SSE 5.8 mph - N/A   Clear
9:35 PM 79.7 °F - 61.9 °F 54% 29.84 in 10.0 mi SSE 4.6 mph - N/A   Clear
9:55 PM 77.2 °F - 60.4 °F 56% 29.85 in 10.0 mi ESE 3.5 mph - N/A   Clear
10:15 PM 77.2 °F - 62.1 °F 59% 29.85 in 10.0 mi Calm Calm - N/A   Clear
10:35 PM 74.7 °F - 61.7 °F 64% 29.86 in 10.0 mi Calm Calm - N/A   Clear
10:55 PM 72.1 °F - 62.8 °F 72% 29.86 in 10.0 mi NNE 6.9 mph - N/A   Clear
11:15 PM 74.7 °F - 63.9 °F 69% 29.87 in 10.0 mi NE 4.6 mph - N/A   Clear
11:35 PM 74.7 °F - 61.7 °F 64% 29.87 in 10.0 mi ENE 4.6 mph - N/A   Clear